When you browse on this site, cookies collect data to enhance your experience and personalize the content and advertising you see.
Visit our Privacy Policy to learn more. By continuing to use the site, you agree to this use of cookies and data.
  • In Österreich
  • Länderverzeichnis
  • Für 7 Tage
  • Wassertemperatur
  • Wetterkarte
  • News
  • Widgets
  • user-avatar
    Anmelden

    Stündliche Wetter Tlahuelilpan

    Heute, 23 August, Freitag

    Zeit Temperatur Niederschläge Wind Luftdruck Luftfeuchtigkeit
    00:00 +16°C° 0 mm 1 m/S 596 mmHg 87%
    01:00 +15°C° 0 mm 1 m/S 596 mmHg 88%
    02:00 +15°C° 0 mm 1 m/S 596 mmHg 90%
    03:00 +15°C° 0 mm 1 m/S 596 mmHg 90%
    04:00 +14°C° 0 mm 1 m/S 595 mmHg 90%
    05:00 +14°C° 0 mm 1 m/S 595 mmHg 90%
    06:00 +16°C° 0 mm 1 m/S 596 mmHg 84%
    07:00 +19°C° 0 mm 1 m/S 597 mmHg 78%
    08:00 +20°C° 0 mm 1 m/S 598 mmHg 73%
    09:00 +22°C° 0 mm 1 m/S 598 mmHg 67%
    10:00 +23°C° 0 mm 1 m/S 599 mmHg 61%
    11:00 +25°C° 0 mm 2 m/S 599 mmHg 56%
    12:00 +25°C° 0.4 mm 3 m/S 599 mmHg 54%
    13:00 +26°C° 0.4 mm 3 m/S 599 mmHg 53%
    14:00 +26°C° 0.4 mm 4 m/S 598 mmHg 51%
    15:00 +25°C° 1.4 mm 3 m/S 598 mmHg 59%
    16:00 +24°C° 1.4 mm 3 m/S 597 mmHg 67%
    17:00 +21°C° 1.4 mm 2 m/S 596 mmHg 74%
    18:00 +20°C° 1.6 mm 3 m/S 596 mmHg 79%
    19:00 +18°C° 1.6 mm 3 m/S 596 mmHg 84%
    20:00 +17°C° 1.6 mm 4 m/S 597 mmHg 89%
    21:00 +16°C° 0.1 mm 3 m/S 596 mmHg 89%
    22:00 +16°C° 0.1 mm 2 m/S 596 mmHg 89%
    23:00 +15°C° 0.1 mm 2 m/S 596 mmHg 90%

    Morgen, 24 August, Samstag

    Zeit Temperatur Niederschläge Wind Luftdruck Luftfeuchtigkeit
    00:00 +15°C° 0 mm 1 m/S 596 mmHg 90%
    01:00 +15°C° 0 mm 1 m/S 596 mmHg 89%
    02:00 +15°C° 0 mm 1 m/S 595 mmHg 89%
    03:00 +15°C° 0 mm 1 m/S 595 mmHg 88%
    04:00 +15°C° 0 mm 1 m/S 595 mmHg 88%
    05:00 +15°C° 0 mm 1 m/S 595 mmHg 87%
    06:00 +16°C° 0 mm 1 m/S 596 mmHg 81%
    07:00 +19°C° 0 mm 1 m/S 597 mmHg 75%
    08:00 +20°C° 0 mm 1 m/S 598 mmHg 69%
    09:00 +21°C° 0 mm 1 m/S 598 mmHg 64%
    10:00 +23°C° 0 mm 1 m/S 599 mmHg 60%
    11:00 +24°C° 0 mm 1 m/S 599 mmHg 55%
    12:00 +25°C° 0.1 mm 1 m/S 599 mmHg 53%
    13:00 +25°C° 0.1 mm 2 m/S 598 mmHg 51%
    14:00 +26°C° 0.1 mm 2 m/S 598 mmHg 50%
    15:00 +25°C° 0.4 mm 2 m/S 598 mmHg 54%
    16:00 +24°C° 0.4 mm 2 m/S 597 mmHg 59%
    17:00 +24°C° 0.4 mm 2 m/S 597 mmHg 64%
    18:00 +21°C° 1.1 mm 2 m/S 597 mmHg 70%
    19:00 +19°C° 1.1 mm 2 m/S 597 mmHg 77%
    20:00 +18°C° 1.1 mm 2 m/S 597 mmHg 83%
    21:00 +17°C° 0 mm 2 m/S 597 mmHg 83%
    22:00 +17°C° 0 mm 2 m/S 597 mmHg 83%
    23:00 +18°C° 0 mm 1 m/S 597 mmHg 82%

    übermorgen, 25 August, Sonntag

    Zeit Temperatur Niederschläge Wind Luftdruck Luftfeuchtigkeit
    00:00 +16°C° 0 mm 1 m/S 596 mmHg 83%
    01:00 +16°C° 0 mm 1 m/S 595 mmHg 83%
    02:00 +15°C° 0 mm 1 m/S 595 mmHg 84%
    03:00 +15°C° 0 mm 1 m/S 595 mmHg 84%
    04:00 +15°C° 0 mm 1 m/S 595 mmHg 84%
    05:00 +14°C° 0 mm 1 m/S 595 mmHg 84%
    06:00 +16°C° 0 mm 1 m/S 596 mmHg 77%
    07:00 +19°C° 0 mm 1 m/S 597 mmHg 71%
    08:00 +21°C° 0 mm 1 m/S 598 mmHg 65%
    09:00 +23°C° 0 mm 1 m/S 598 mmHg 59%
    10:00 +24°C° 0 mm 1 m/S 599 mmHg 54%
    11:00 +26°C° 0 mm 1 m/S 599 mmHg 48%
    12:00 +27°C° 0.1 mm 2 m/S 599 mmHg 47%
    13:00 +27°C° 0.1 mm 2 m/S 598 mmHg 46%
    14:00 +28°C° 0.1 mm 3 m/S 598 mmHg 44%
    15:00 +27°C° 0.3 mm 3 m/S 597 mmHg 50%
    16:00 +26°C° 0.3 mm 3 m/S 597 mmHg 55%
    17:00 +25°C° 0.3 mm 3 m/S 597 mmHg 61%
    18:00 +22°C° 0.5 mm 3 m/S 596 mmHg 67%
    19:00 +20°C° 0.5 mm 2 m/S 596 mmHg 73%
    20:00 +19°C° 0.5 mm 1 m/S 596 mmHg 80%
    21:00 +19°C° 0.2 mm 1 m/S 596 mmHg 81%
    22:00 +18°C° 0.2 mm 1 m/S 596 mmHg 82%
    23:00 +18°C° 0.2 mm 1 m/S 596 mmHg 83%

    26 August, Montag

    Zeit Temperatur Niederschläge Wind Luftdruck Luftfeuchtigkeit
    00:00 +18°C° 0.3 mm 1 m/S 595 mmHg 83%
    01:00 +18°C° 0.3 mm 1 m/S 595 mmHg 84%
    02:00 +16°C° 0.3 mm 1 m/S 595 mmHg 85%
    03:00 +16°C° 0 mm 1 m/S 595 mmHg 85%
    04:00 +16°C° 0 mm 1 m/S 595 mmHg 85%
    05:00 +16°C° 0 mm 1 m/S 595 mmHg 85%
    06:00 +18°C° 0 mm 1 m/S 595 mmHg 79%
    07:00 +20°C° 0 mm 1 m/S 596 mmHg 73%
    08:00 +22°C° 0 mm 1 m/S 597 mmHg 67%
    09:00 +23°C° 0.4 mm 1 m/S 597 mmHg 61%
    10:00 +24°C° 0.4 mm 1 m/S 598 mmHg 56%
    11:00 +26°C° 0.4 mm 1 m/S 598 mmHg 51%
    12:00 +26°C° 0.7 mm 1 m/S 597 mmHg 51%
    13:00 +26°C° 0.7 mm 2 m/S 597 mmHg 51%
    14:00 +26°C° 0.7 mm 2 m/S 596 mmHg 51%
    15:00 +24°C° 1.7 mm 2 m/S 596 mmHg 62%
    16:00 +21°C° 1.7 mm 3 m/S 595 mmHg 72%
    17:00 +19°C° 1.7 mm 3 m/S 594 mmHg 82%
    18:00 +18°C° 1.1 mm 2 m/S 594 mmHg 83%
    19:00 +17°C° 1.1 mm 2 m/S 595 mmHg 83%
    20:00 +18°C° 1.1 mm 1 m/S 595 mmHg 83%
    21:00 +16°C° 0 mm 1 m/S 595 mmHg 84%
    22:00 +16°C° 0 mm 1 m/S 595 mmHg 85%
    23:00 +14°C° 0 mm 0 m/S 595 mmHg 85%

    27 August, Dienstag

    Zeit Temperatur Niederschläge Wind Luftdruck Luftfeuchtigkeit
    00:00 +14°C° 0 mm 0 m/S 595 mmHg 85%
    01:00 +14°C° 0 mm 0 m/S 595 mmHg 85%
    02:00 +14°C° 0 mm 0 m/S 594 mmHg 85%
    03:00 +13°C° 0 mm 0 m/S 594 mmHg 84%
    04:00 +13°C° 0 mm 0 m/S 594 mmHg 84%
    05:00 +14°C° 0 mm 1 m/S 594 mmHg 83%
    06:00 +16°C° 0 mm 1 m/S 595 mmHg 78%
    07:00 +18°C° 0 mm 1 m/S 596 mmHg 72%
    08:00 +20°C° 0 mm 1 m/S 597 mmHg 66%
    09:00 +21°C° 0 mm 1 m/S 597 mmHg 61%
    10:00 +23°C° 0 mm 1 m/S 597 mmHg 57%
    11:00 +24°C° 0 mm 1 m/S 598 mmHg 52%
    12:00 +25°C° 0.1 mm 2 m/S 597 mmHg 52%
    13:00 +25°C° 0.1 mm 3 m/S 597 mmHg 51%
    14:00 +26°C° 0.1 mm 4 m/S 597 mmHg 51%
    15:00 +23°C° 0.9 mm 4 m/S 597 mmHg 58%
    16:00 +22°C° 0.9 mm 3 m/S 596 mmHg 65%
    17:00 +21°C° 0.9 mm 3 m/S 596 mmHg 72%
    18:00 +20°C° 0.5 mm 3 m/S 596 mmHg 76%
    19:00 +19°C° 0.5 mm 2 m/S 596 mmHg 81%
    20:00 +19°C° 0.5 mm 1 m/S 597 mmHg 85%
    21:00 +18°C° 0.2 mm 1 m/S 597 mmHg 86%
    22:00 +18°C° 0.2 mm 1 m/S 597 mmHg 87%
    23:00 +16°C° 0.2 mm 1 m/S 597 mmHg 87%

    28 August, Mittwoch

    Zeit Temperatur Niederschläge Wind Luftdruck Luftfeuchtigkeit
    00:00 +16°C° 0.4 mm 1 m/S 597 mmHg 87%
    01:00 +16°C° 0.4 mm 1 m/S 596 mmHg 86%
    02:00 +16°C° 0.4 mm 1 m/S 596 mmHg 85%
    03:00 +15°C° 0.1 mm 1 m/S 596 mmHg 86%
    04:00 +15°C° 0.1 mm 1 m/S 596 mmHg 87%
    05:00 +13°C° 0.1 mm 0 m/S 596 mmHg 88%
    06:00 +15°C° 0 mm 0 m/S 597 mmHg 82%
    07:00 +17°C° 0 mm 0 m/S 598 mmHg 77%
    08:00 +18°C° 0 mm 0 m/S 599 mmHg 72%
    09:00 +22°C° 0.2 mm 1 m/S 599 mmHg 66%
    10:00 +23°C° 0.2 mm 1 m/S 599 mmHg 60%
    11:00 +25°C° 0.2 mm 2 m/S 599 mmHg 54%
    12:00 +25°C° 0.4 mm 3 m/S 599 mmHg 55%
    13:00 +25°C° 0.4 mm 4 m/S 598 mmHg 55%
    14:00 +25°C° 0.4 mm 5 m/S 598 mmHg 56%
    15:00 +23°C° 1.6 mm 5 m/S 597 mmHg 63%
    16:00 +21°C° 1.6 mm 4 m/S 597 mmHg 70%
    17:00 +20°C° 1.6 mm 4 m/S 597 mmHg 77%
    18:00 +19°C° 0.7 mm 3 m/S 597 mmHg 81%
    19:00 +18°C° 0.7 mm 2 m/S 597 mmHg 85%
    20:00 +17°C° 0.7 mm 2 m/S 597 mmHg 89%
    21:00 +16°C° 0.2 mm 1 m/S 597 mmHg 90%
    22:00 +16°C° 0.2 mm 1 m/S 597 mmHg 91%
    23:00 +15°C° 0.2 mm 1 m/S 597 mmHg 92%
    Mehr zeigen